Bierset, Belgium

7:25 PM CET on February 13, 2016 (GMT +0100)
Liege

Weather History for EBLG - July, 2013

Change the Weather History Date:

Wednesday, July 17, 2013

  Actual Average Record
Temperature  
Mean Temperature 68 °F -  
Max Temperature 78 °F 71 °F 89 °F (2015)
Min Temperature 59 °F 56 °F 48 °F (1996)
Cooling Degree Days 4    
Growing Degree Days 18 (Base 50)    
Moisture  
Dew Point 57 °F    
Average Humidity 63    
Maximum Humidity 83    
Minimum Humidity 37    
Precipitation  
Precipitation 0.00 in - - ()
Sea Level Pressure  
Sea Level Pressure 30.22 in    
Wind  
Wind Speed 5 mph ()    
Max Wind Speed 12 mph    
Max Gust Speed -    
Visibility 9.0 miles    
Events      
Averages and records for this station are not official NWS values.
T = Trace of Precipitation, MM = Missing Value Source: Averaged Metar Reports

Daily Weather History Graph

Daily Weather History Graph

Search for Another Location

Airport or City:

Trip Planner

Search our weather history database for the weather conditions in past years. The results will help you decide how hot, cold, wet, or windy it might be!

Date:

Astronomy

Jul. 17, 2013 Rise Set
Actual Time 5:45 AM CEST 9:42 PM CEST
Civil Twilight 5:02 AM CEST 10:25 PM CEST
Nautical Twilight 4:02 AM CEST 11:25 PM CEST
Astronomical Twilight 2:05 AM CEST 1:13 AM CEST
Moon 4:03 PM CEST (7/17) 12:57 AM CEST (7/17)
Length of Visible Light 17h 23m
Length of Day
15h 57m
Waxing Gibbous, 64% of the Moon is Illuminated
Jul 17
Waxing Gibbous
Jul 22
Full
Jul 29
Last Quarter
Aug 6
New
Aug 14
First Quarter

Hourly Weather History & Observations

Time (CEST) Temp. Dew Point Humidity Pressure Visibility Wind Dir Wind Speed Gust Speed Precip Events Conditions
12:00 AM 69 °F 54 °F 50% 30.21 in 16 mi NE 4.5 mph - -   Clear
12:20 AM 66.2 °F 55.4 °F 68% 30.21 in - North 4.6 mph - N/A   Clear
12:50 AM 66.2 °F 53.6 °F 64% 30.21 in - ENE 5.8 mph - N/A   Clear
1:00 AM 66 °F 54 °F 57% 30.22 in 16 mi ENE 4.5 mph - -   Clear
1:20 AM 64.4 °F 53.6 °F 68% 30.21 in - NE 5.8 mph - N/A   Clear
1:50 AM 64.4 °F 55.4 °F 73% 30.21 in - NNE 4.6 mph - N/A   Clear
2:00 AM 64 °F 55 °F 64% 30.22 in 16 mi NNE 2.3 mph - -   Clear
2:20 AM 64.4 °F 53.6 °F 68% 30.21 in - NE 4.6 mph - N/A   Clear
2:50 AM 64.4 °F 53.6 °F 68% 30.21 in - NE 2.3 mph - N/A   Clear
3:00 AM 64 °F 54 °F 62% 30.22 in 11 mi NE 2.2 mph - -   Clear
3:20 AM 62.6 °F 55.4 °F 77% 30.21 in - North 3.5 mph - N/A   Clear
3:50 AM 60.8 °F 53.6 °F 77% 30.21 in - North 2.3 mph - N/A   Clear
4:00 AM 61 °F 54 °F 73% 30.22 in 11 mi North 2.2 mph - -   Clear
4:20 AM 60.8 °F 53.6 °F 77% 30.21 in - NNE 3.5 mph - N/A   Clear
4:50 AM 60.8 °F 53.6 °F 77% 30.21 in - NE 4.6 mph - N/A   Clear
5:00 AM 61 °F 54 °F 73% 30.22 in 11 mi NE 4.5 mph - -   Scattered Clouds
5:20 AM 60.8 °F 55.4 °F 82% 30.21 in - ENE 4.6 mph - N/A   Clear
5:50 AM 60.8 °F 55.4 °F 82% 30.21 in - Variable 2.3 mph - N/A   Clear
6:20 AM 62.6 °F 55.4 °F 77% 30.21 in - Variable 2.3 mph - N/A   Clear
6:50 AM 62.6 °F 55.4 °F 77% 30.21 in - South 2.3 mph - N/A   Clear
7:20 AM 62.6 °F 57.2 °F 82% 30.21 in - ESE 2.3 mph - N/A   Clear
7:50 AM 64.4 °F 57.2 °F 77% 30.24 in - Variable 1.2 mph - N/A   Clear
8:00 AM 64 °F 57 °F 72% 30.23 in 7 mi NNW 2.2 mph - -   Scattered Clouds
8:20 AM 64.4 °F 59.0 °F 83% 30.24 in - Variable 2.3 mph - N/A   Clear
8:50 AM 66.2 °F 59.0 °F 78% 30.24 in - North 4.6 mph - N/A   Clear
9:00 AM 66 °F 58 °F 70% 30.23 in 7 mi North 4.5 mph - -   Scattered Clouds
9:20 AM 68.0 °F 59.0 °F 73% 30.24 in - NE 5.8 mph - N/A   Clear
9:50 AM 69.8 °F 57.2 °F 64% 30.24 in - NNE 4.6 mph - N/A   Clear
10:00 AM 69 °F 58 °F 59% 30.23 in 7 mi NNE 4.5 mph - -   Scattered Clouds
10:20 AM 69.8 °F 59.0 °F 68% 30.24 in - NNE 4.6 mph - N/A   Clear
10:50 AM 71.6 °F 57.2 °F 60% 30.24 in - NNE 8.1 mph - N/A   Clear
11:00 AM 72 °F 58 °F 52% 30.23 in 9 mi NNE 8.9 mph - -   Scattered Clouds
11:20 AM 73.4 °F 57.2 °F 57% 30.24 in - NNE 9.2 mph - N/A   Clear
11:50 AM 75.2 °F 55.4 °F 50% 30.24 in - NE 10.4 mph - N/A   Clear
12:00 PM 75 °F 56 °F 41% 30.22 in 12 mi NE 11.2 mph - -   Scattered Clouds
12:20 PM 75.2 °F 55.4 °F 50% 30.24 in 6.2 mi NNE 9.2 mph - N/A   Partly Cloudy
12:50 PM 75.2 °F 55.4 °F 50% 30.24 in 6.2 mi NE 8.1 mph - N/A   Partly Cloudy
1:00 PM 75 °F 56 °F 41% 30.22 in 12 mi NE 8.9 mph - -   Scattered Clouds
1:20 PM 75.2 °F 57.2 °F 53% 30.24 in 6.2 mi NE 10.4 mph - N/A   Partly Cloudy
1:50 PM 77.0 °F 59.0 °F 54% 30.21 in 6.2 mi NE 10.4 mph - N/A   Partly Cloudy
2:00 PM 76 °F 58 °F 44% 30.22 in 9 mi NE 11.2 mph - -   Scattered Clouds
2:20 PM 77.0 °F 57.2 °F 50% 30.21 in 6.2 mi NNE 10.4 mph - N/A   Partly Cloudy
2:50 PM 77.0 °F 57.2 °F 50% 30.21 in 6.2 mi NE 11.5 mph - N/A   Partly Cloudy
3:00 PM 78 °F 58 °F 39% 30.21 in 9 mi NE 11.2 mph - -   Scattered Clouds
3:20 PM 77.0 °F 55.4 °F 47% 30.21 in 6.2 mi NNE 11.5 mph - N/A   Partly Cloudy
3:50 PM 77.0 °F 55.4 °F 47% 30.21 in 6.2 mi NNE 11.5 mph - N/A   Partly Cloudy
4:00 PM 77 °F 56 °F 37% 30.20 in 12 mi NNE 11.2 mph - -   Scattered Clouds
4:20 PM 77.0 °F 55.4 °F 47% 30.21 in 6.2 mi NE 11.5 mph - N/A   Partly Cloudy
4:50 PM 77.0 °F 55.4 °F 47% 30.21 in 6.2 mi NE 11.5 mph - N/A   Partly Cloudy
5:20 PM 77.0 °F 57.2 °F 50% 30.21 in 6.2 mi NNE 10.4 mph - N/A   Partly Cloudy
5:50 PM 77.0 °F 59.0 °F 54% 30.21 in 6.2 mi NE 10.4 mph - N/A   Partly Cloudy
6:00 PM 77 °F 58 °F 42% 30.19 in 12 mi NE 11.2 mph - -   Scattered Clouds
6:20 PM 75.2 °F 57.2 °F 53% 30.21 in 6.2 mi NE 9.2 mph - N/A   Partly Cloudy
6:50 PM 75.2 °F 57.2 °F 53% 30.21 in - NE 9.2 mph - N/A   Clear
7:20 PM 73.4 °F 59.0 °F 61% 30.21 in - NNE 9.2 mph - N/A   Clear
7:50 PM 73.4 °F 59.0 °F 61% 30.21 in - NNE 8.1 mph - N/A   Clear
8:00 PM 73 °F 59 °F 52% 30.20 in 12 mi NNE 8.9 mph - -   Scattered Clouds
8:20 PM 71.6 °F 60.8 °F 69% 30.21 in - NNE 5.8 mph - N/A   Clear
8:50 PM 71.6 °F 60.8 °F 69% 30.21 in - NNE 5.8 mph - N/A   Clear
9:20 PM 71.6 °F 59.0 °F 64% 30.21 in - NNE 6.9 mph - N/A   Clear
9:50 PM 69.8 °F 59.0 °F 68% 30.21 in - NNE 5.8 mph - N/A   Clear
10:20 PM 68.0 °F 60.8 °F 78% 30.21 in - NNE 5.8 mph - N/A   Clear
10:50 PM 68.0 °F 60.8 °F 78% 30.24 in - North 3.5 mph - N/A   Clear
11:00 PM 68 °F 61 °F 72% 30.22 in 9 mi North 4.5 mph - -   Scattered Clouds
11:20 PM 68.0 °F 60.8 °F 78% 30.24 in - NNE 4.6 mph - N/A   Clear
11:50 PM 66.2 °F 60.8 °F 83% 30.24 in - North 3.5 mph - N/A   Clear